Weather History for Adak, AK

Change the Weather History Date:

Wednesday, October 10, 2012

  Actual Average Record
Temperature  
Mean Temperature 44 °F -  
Max Temperature 46 °F 48 °F 56 °F (1968)
Min Temperature 42 °F 39 °F 30 °F (1992)
Degree Days  
Heating Degree Days 21    
Moisture  
Dew Point 43 °F    
Average Humidity 96    
Maximum Humidity 100    
Minimum Humidity 89    
Precipitation  
Precipitation 0.00 in - - ()
Sea Level Pressure  
Sea Level Pressure 29.45 in    
Wind  
Wind Speed 7 mph (NNE)    
Max Wind Speed 18 mph    
Max Gust Speed -    
Visibility 6 miles    
Events      
Averages and records for this station are not official NWS values.
T = Trace of Precipitation, MM = Missing Value Source: NWS Daily Summary

Daily Weather History Graph

Daily Weather History Graph

Search for Another Location

Airport:

Trip Planner

Search our weather history database for the weather conditions in past years. The results will help you decide how hot, cold, wet, or windy it might be!

Date:

Astronomy

Oct. 10, 2012 Rise Set
Actual Time 9:03 AM HADT 8:01 PM HADT
Civil Twilight 8:30 AM HADT 8:35 PM HADT
Nautical Twilight 7:51 AM HADT 9:14 PM HADT
Astronomical Twilight 7:11 AM HADT 9:53 PM HADT
Moon 3:20 AM HADT (10/10) 5:42 PM HADT (10/10)
Length of Visible Light 12h 05m
Length of Day
10h 57m
Waning Crescent, 25% of the Moon is Illuminated
Oct 10
Waning Crescent
Oct 15
New
Oct 21
First Quarter
Oct 29
Full
Nov 6
Last Quarter

Hourly Weather History & Observations

Time (HADT) Temp. Windchill Dew Point Humidity Pressure Visibility Wind Dir Wind Speed Gust Speed Precip Events Conditions
12:16 AM 42.8 °F 36.6 °F 42.8 °F 100% 29.68 in 10.0 mi North 11.5 mph - N/A   Overcast
12:36 AM 42.8 °F 37.0 °F 42.8 °F 100% 29.67 in 10.0 mi North 10.4 mph - N/A   Overcast
12:56 AM 44.6 °F 42.2 °F 42.8 °F 93% 29.67 in 10.0 mi WNW 4.6 mph - N/A   Overcast
1:16 AM 44.6 °F - 42.8 °F 93% 29.67 in 7.0 mi Calm Calm - N/A   Overcast
1:36 AM 44.6 °F 42.2 °F 42.8 °F 93% 29.66 in 10.0 mi NNE 4.6 mph - N/A   Overcast
1:56 AM 44.6 °F 40.7 °F 42.8 °F 93% 29.65 in 10.0 mi North 6.9 mph - N/A   Overcast
2:16 AM 44.6 °F 41.4 °F 42.8 °F 93% 29.65 in 4.0 mi WNW 5.8 mph - N/A   Overcast
2:36 AM 44.6 °F - 42.8 °F 93% 29.65 in 5.0 mi Calm Calm - N/A   Overcast
2:56 AM 44.6 °F 43.1 °F 42.8 °F 93% 29.66 in 5.0 mi NNW 3.5 mph - N/A   Overcast
3:16 AM 44.6 °F 41.4 °F 42.8 °F 93% 29.64 in 8.0 mi North 5.8 mph - N/A   Overcast
3:36 AM 44.6 °F 40.7 °F 42.8 °F 93% 29.65 in 7.0 mi NNW 6.9 mph - N/A   Overcast
3:56 AM 44.6 °F 39.7 °F 42.8 °F 93% 29.64 in 5.0 mi North 9.2 mph - N/A   Overcast
4:16 AM 44.6 °F 39.7 °F 42.8 °F 93% 29.64 in 2.5 mi North 9.2 mph - N/A   Overcast
4:36 AM 44.6 °F 40.2 °F 42.8 °F 93% 29.64 in 3.0 mi North 8.1 mph - N/A   Overcast
4:56 AM 44.6 °F 40.2 °F 42.8 °F 93% 29.62 in 5.0 mi North 8.1 mph - N/A   Overcast
5:16 AM 44.6 °F 40.2 °F 42.8 °F 93% 29.62 in 5.0 mi NNE 8.1 mph - N/A   Overcast
5:36 AM 44.6 °F 40.2 °F 42.8 °F 93% 29.61 in 4.0 mi North 8.1 mph - N/A   Overcast
5:56 AM 44.6 °F 39.7 °F 42.8 °F 93% 29.60 in 4.0 mi North 9.2 mph - N/A   Overcast
6:16 AM 42.8 °F 37.5 °F 42.8 °F 100% 29.59 in 6.0 mi North 9.2 mph - N/A   Overcast
6:36 AM 42.8 °F 37.0 °F 42.8 °F 100% 29.58 in 6.0 mi North 10.4 mph - N/A   Overcast
6:56 AM 42.8 °F 38.0 °F 42.8 °F 100% 29.58 in 6.0 mi North 8.1 mph - N/A   Overcast
7:16 AM 42.8 °F 38.6 °F 42.8 °F 100% 29.58 in 10.0 mi North 6.9 mph - N/A   Overcast
7:56 AM 42.8 °F 40.1 °F 42.8 °F 100% 29.58 in 2.5 mi North 4.6 mph - N/A   Overcast
8:16 AM 42.8 °F 40.1 °F 42.8 °F 100% 29.57 in 3.0 mi North 4.6 mph - N/A   Overcast
8:36 AM 42.8 °F - 42.8 °F 100% 29.57 in 6.0 mi North - - N/A   Overcast
8:56 AM 42.8 °F 41.1 °F 42.8 °F 100% 29.56 in 3.0 mi North 3.5 mph - N/A   Overcast
9:16 AM 42.8 °F 41.1 °F 42.8 °F 100% 29.56 in 4.0 mi North 3.5 mph - N/A   Overcast
9:36 AM 42.8 °F - 42.8 °F 100% 29.54 in 5.0 mi Calm Calm - N/A   Overcast
9:56 AM 42.8 °F 39.3 °F 41.0 °F 93% 29.54 in 5.0 mi NNE 5.8 mph - N/A   Overcast
10:16 AM 44.6 °F 43.1 °F 42.8 °F 93% 29.54 in 2.5 mi NNE 3.5 mph - N/A   Overcast
10:36 AM 44.6 °F 42.2 °F 42.8 °F 93% 29.54 in 3.0 mi NE 4.6 mph - N/A   Overcast
10:56 AM 44.6 °F 43.1 °F 42.8 °F 93% 29.53 in 2.0 mi ENE 3.5 mph - N/A   Overcast
11:16 AM 44.6 °F 43.1 °F 42.8 °F 93% 29.52 in 1.0 mi ENE 3.5 mph - N/A   Overcast
11:36 AM 44.6 °F 43.1 °F 42.8 °F 93% 29.51 in 2.0 mi ENE 3.5 mph - N/A   Overcast
11:56 AM 44.6 °F - 42.8 °F 93% 29.51 in 3.0 mi Calm Calm - N/A   Overcast
12:16 PM 44.6 °F - 42.8 °F 93% 29.50 in 2.5 mi Calm Calm - N/A   Overcast
12:36 PM 44.6 °F 43.1 °F 42.8 °F 93% 29.49 in 3.0 mi ENE 3.5 mph - N/A   Overcast
12:56 PM 44.6 °F 41.4 °F 42.8 °F 93% 29.48 in 3.0 mi ENE 5.8 mph - N/A   Overcast
1:16 PM 44.6 °F 41.4 °F 42.8 °F 93% 29.47 in 6.0 mi NE 5.8 mph - N/A   Overcast
1:36 PM 44.6 °F 40.7 °F 44.6 °F 100% 29.46 in 8.0 mi NE 6.9 mph - N/A   Overcast
1:56 PM 44.6 °F 40.7 °F 44.6 °F 100% 29.44 in 6.0 mi NE 6.9 mph - N/A   Overcast
2:16 PM 44.6 °F 39.7 °F 44.6 °F 100% 29.43 in 8.0 mi ENE 9.2 mph - N/A   Overcast
2:36 PM 44.6 °F 40.7 °F 42.8 °F 93% 29.41 in 5.0 mi NE 6.9 mph - N/A   Overcast
2:56 PM 44.6 °F 39.2 °F 44.6 °F 100% 29.40 in 5.0 mi NE 10.4 mph - N/A   Overcast
3:16 PM 44.6 °F 39.7 °F 44.6 °F 100% 29.38 in 8.0 mi NNE 9.2 mph - N/A   Overcast
3:36 PM 44.6 °F 39.7 °F 44.6 °F 100% 29.36 in 9.0 mi NE 9.2 mph - N/A   Overcast
3:56 PM 46.4 °F 41.5 °F 44.6 °F 93% 29.35 in 10.0 mi NE 10.4 mph - N/A   Overcast
4:16 PM 46.4 °F 42.4 °F 44.6 °F 93% 29.34 in 4.0 mi NNE 8.1 mph - N/A   Overcast
4:36 PM 46.4 °F 42.4 °F 44.6 °F 93% 29.33 in 7.0 mi NE 8.1 mph - N/A   Overcast
4:56 PM 44.6 °F 39.7 °F 44.6 °F 100% 29.31 in 3.0 mi NE 9.2 mph - N/A   Overcast
5:16 PM 44.6 °F 40.2 °F 44.6 °F 100% 29.31 in 2.5 mi NE 8.1 mph - N/A   Mostly Cloudy
5:36 PM 44.6 °F 38.8 °F 44.6 °F 100% 29.29 in 3.0 mi NE 11.5 mph - N/A   Overcast
5:56 PM 44.6 °F 38.4 °F 44.6 °F 100% 29.28 in 5.0 mi NE 12.7 mph - N/A   Overcast
6:16 PM 44.6 °F 38.4 °F 44.6 °F 100% 29.28 in 5.0 mi NE 12.7 mph - N/A   Overcast
6:36 PM 44.6 °F 38.8 °F 44.6 °F 100% 29.26 in 4.0 mi NE 11.5 mph - N/A   Overcast
6:56 PM 44.6 °F 39.2 °F 44.6 °F 100% 29.25 in 3.0 mi NNE 10.4 mph - N/A   Overcast
7:16 PM 46.4 °F 41.9 °F 44.6 °F 93% 29.25 in 3.0 mi NNE 9.2 mph - N/A   Overcast
7:36 PM 44.6 °F 39.7 °F 44.6 °F 100% 29.24 in 2.5 mi NNE 9.2 mph - N/A   Overcast
7:56 PM 44.6 °F 39.7 °F 42.8 °F 93% 29.23 in 2.5 mi NNE 9.2 mph - N/A   Overcast
8:16 PM 44.6 °F 39.7 °F 42.8 °F 93% 29.22 in 5.0 mi NNE 9.2 mph - N/A   Overcast
8:36 PM 44.6 °F 40.2 °F 42.8 °F 93% 29.21 in 9.0 mi NNE 8.1 mph - N/A   Overcast
8:56 PM 44.6 °F 38.8 °F 42.8 °F 93% 29.20 in 10.0 mi NE 11.5 mph - N/A   Overcast
9:16 PM 44.6 °F 38.1 °F 44.6 °F 100% 29.19 in 9.0 mi ENE 13.8 mph - N/A   Overcast
9:36 PM 44.6 °F 37.8 °F 44.6 °F 100% 29.18 in 10.0 mi ENE 15.0 mph - N/A   Overcast
9:56 PM 44.6 °F 36.9 °F 44.6 °F 100% 29.17 in 10.0 mi ENE 18.4 mph - N/A   Overcast
10:16 PM 44.6 °F 37.8 °F 44.6 °F 100% 29.16 in 10.0 mi ENE 15.0 mph - N/A   Overcast
10:36 PM 44.6 °F 38.1 °F 44.6 °F 100% 29.15 in 10.0 mi ENE 13.8 mph - N/A   Overcast
11:16 PM 44.6 °F 38.4 °F 44.6 °F 100% 29.14 in 10.0 mi NE 12.7 mph - N/A   Overcast
11:36 PM 44.6 °F 39.2 °F 44.6 °F 100% 29.13 in 10.0 mi NE 10.4 mph - N/A   Overcast
11:56 PM 44.6 °F 38.4 °F 44.6 °F 100% 29.13 in 10.0 mi ENE 12.7 mph - N/A   Overcast